Current weather by "City, St" or "zip code"  
 

Current Conditions: Oak Ridge, TN

Fair


67.0 F

Last Updated on Oct 23 2020, 9:53 pm EDT
Humidity: 87%
Wind Speed: N 0.0 mph
Barometer 30.05 in
Dewpoint: 63.0 F
Visibility: 10.00 mi
Precip: --
Heat Index: NA
Wind Chill: NA
Current conditions at:

Oak Ridge, TN (KOQT)

Lat: 36.02278 Lon: 84.23333

Local Radar Image active severe weather and emergency alerts image image weather storm and storm spotter reports image weather observation monitoring service image
Local
Radar
Active
Alerts
Storm Reports Obs
Monitoring

Sign-up For Email & Text Message Weather Alert Notification Services



Advertise Here

Observation History for Oak Ridge, TN


Time Wind
(mph)
Vis
(mi)
Weather Precip (in) Temperature (F) Relative
Humidity
Wind
Chill
(F)
Heat
Index
(F)
Pressure
Air Dwpt altimeter
(in)
sea level
(mb)
Rmks
9:53 pm EDT N 0.0 10.00 Fair -- 67.0 63.0 87% NA NA 30.05 1016.8
8:53 pm EDT N 0.0 10.00 Fair -- 68.0 62.1 81% NA NA 30.05 1017.1
7:53 pm EDT N 0.0 10.00 Fair -- 70.0 63.0 79% NA NA 30.04 1016.6
6:53 pm EDT N 0.0 10.00 Fair -- 75.0 62.1 64% NA NA 30.04 1016.2
5:53 pm EDT 3.5 10.00 Fair -- 79.0 61.0 54% NA NA 30.03 1016.0
4:53 pm EDT 3.5 10.00 A Few Clouds -- 80.0 61.0 52% NA 81 30.05 1016.5
2:53 pm EDT S 4.6 10.00 Mostly Cloudy -- 79.0 62.1 56% NA NA 30.09 1017.9
1:53 pm EDT S 4.6 10.00 Mostly Cloudy -- 78.0 62.1 58% NA NA 30.12 1018.8
12:53 pm EDT N 0.0 10.00 Mostly Cloudy -- 76.0 63.0 64% NA NA 30.15 1020.0
11:53 am EDT W 4.6 10.00 Partly Cloudy -- 73.0 62.1 69% NA NA 30.17 1020.7
10:53 am EDT N 0.0 10.00 Partly Cloudy -- 71.0 62.1 73% NA NA 30.17 1020.8
9:53 am EDT N 0.0 10.00 A Few Clouds -- 62.0 59.0 90% NA NA 30.18 1021.4
8:53 am EDT N 0.0 3.00 Fog/Mist -- 57.0 55.9 96% NA NA 30.18 1021.3
7:53 am EDT N 0.0 4.00 Fog/Mist -- 57.0 55.9 96% NA NA 30.17 1021.0
6:53 am EDT N 0.0 10.00 Fair -- 57.0 55.9 96% NA NA 30.16 1020.5
5:53 am EDT N 0.0 10.00 Overcast -- 58.0 57.0 97% NA NA 30.15 1019.8
4:53 am EDT N 0.0 10.00 Overcast -- 58.0 55.9 93% NA NA 30.14 1019.5
2:53 am EDT N 0.0 10.00 Fair -- 59.0 57.9 96% NA NA 30.14 1019.6
1:53 am EDT N 0.0 10.00 Fair -- 59.0 57.9 96% NA NA 30.15 1019.9
12:53 am EDT N 0.0 10.00 Fair -- 60.0 57.9 93% NA NA 30.15 1020.0
11:53 pm EDT N 0.0 10.00 Fair -- 61.0 59.0 93% NA NA 30.16 1020.3
10:53 pm EDT N 0.0 10.00 Fair -- 63.0 59.0 87% NA NA 30.16 1020.6

Regional Weather Observation


Monticello, Wayne County Airport, KY (KEKQ)

Light Rain
65.0 F

Middlesboro, Middlesboro-Bell County Airport, KY (K1A6)

Fair
63.0 F

Knoxville, McGhee Tyson Airport, TN (KTYS)

Mostly Cloudy
69.0 F

Crossville, Crossville Memorial-Whitson Field Airport, TN (KCSV)

Fair
67.0 F

Sparta Upper Cumberland Regional Airport, TN (KSRB)

Overcast
70.0 F

Harlan, KY (KI35)

Fair
62.0 F